Location: Vancouver
(49.2500°N, 123.1330°W)
Time: 03:14:17
(UTC-08:00)

Iridium 35 - Visible Passes

Search period start: 04 March 2015 00:00
Search period end: 14 March 2015 01:00
Orbit: 776 x 779 km, 86.4° (Epoch: 03 March)

Date Brightness Start Highest point End Pass type
(mag) Time Alt. Az. Time Alt. Az. Time Alt. Az.
04 Mar 7.0 20:01:43 10° NNE 20:03:00 14° NE 20:03:00 14° NE visible
04 Mar 6.8 21:41:17 10° N 21:43:30 26° N 21:43:30 26° N visible
05 Mar 6.4 21:07:45 10° N 21:10:22 30° N 21:10:22 30° N visible
05 Mar 7.7 22:49:32 10° NNW 22:50:52 15° NW 22:50:52 15° NW visible
06 Mar 6.3 20:34:24 10° N 20:37:15 28° NNE 20:37:15 28° NNE visible
06 Mar 7.1 22:15:20 10° NNW 22:17:45 23° NW 22:17:45 23° NW visible
07 Mar 6.5 20:01:20 10° NNE 20:04:11 21° NE 20:04:11 21° NE visible
07 Mar 6.4 21:41:28 10° NNW 21:44:40 35° NNW 21:44:40 35° NNW visible
08 Mar 6.8 20:28:46 10° NE 20:31:07 14° ENE 20:31:07 14° ENE visible
08 Mar 5.7 22:07:50 10° N 22:11:36 49° N 22:11:36 49° N visible
08 Mar 7.7 23:50:23 10° NW 23:52:06 13° WNW 23:52:06 13° WNW visible
09 Mar 5.4 21:34:21 10° N 21:38:35 47° NE 21:38:35 47° NE visible
09 Mar 7.1 23:15:47 10° NNW 23:19:05 23° WNW 23:19:05 23° WNW visible
10 Mar 5.8 21:01:07 10° NNE 21:05:35 31° ENE 21:05:35 31° ENE visible
10 Mar 6.3 22:41:45 10° NNW 22:46:05 38° WNW 22:46:05 38° WNW visible
11 Mar 6.3 20:28:10 10° NNE 20:31:49 19° ENE 20:32:37 19° E visible
11 Mar 5.2 22:07:58 10° N 22:13:07 67° W 22:13:07 67° W visible
12 Mar 6.9 19:56:08 10° NE 19:57:46 12° ENE 19:59:40 10° E visible
12 Mar 4.9 21:34:23 10° N 21:39:38 73° E 21:40:11 66° SE visible
12 Mar 7.4 23:16:24 10° NW 23:19:49 17° WNW 23:20:41 17° W visible
13 Mar 5.4 21:01:00 10° N 21:05:57 43° ENE 21:07:18 36° ESE visible
13 Mar 6.7 22:42:05 10° NNW 22:46:33 29° W 22:47:49 26° WSW visible
